This demonstration page uses our WeatherBlox Daily Observations layout. Learn more.

Left ArrowRight Arrow

Hourly Observations for March 4, 2018

Temp ( °F °C ) Dew Point ( °F °C ) Humidity (%) Winds ( mph kmh ) Pressure ( in mb ) Visibility ( mi km ) Precip ( " mm )
12:53 am 00:53 Clear 51 10.6 44 6.7 77 77 SSE 14 22 29.88 1012 10 16 0.00 0.00
1:53 am 01:53 Clear 51 10.6 43 6.1 74 74 S 14 22 29.86 1011 10 16 0.00 0.00
2:53 am 02:53 Clear 49 9.4 43 6.1 80 80 S 17 28 29.83 1010 10 16 0.00 0.00
3:53 am 03:53 Clear 48 8.9 42 5.6 80 80 SSE 17 28 29.81 1010 10 16 0.00 0.00
4:53 am 04:53 Clear 47 8.3 42 5.6 83 83 S 14 22 29.80 1009 10 16 0.00 0.00
5:53 am 05:53 Mostly Cloudy 46 7.8 41 5 83 83 S 12 19 29.80 1009 10 16 0.00 0.00
6:53 am 06:53 Cloudy 47 8.3 42 5.6 83 83 SSE 17 28 29.79 1009 10 16 0.00 0.00
7:53 am 07:53 Cloudy 49 9.4 42 5.6 77 77 SSE 17 28 29.78 1009 10 16 0.00 0.00
8:53 am 08:53 Cloudy 51 10.6 44 6.7 77 77 SSE 16 26 29.78 1008 10 16 0.00 0.00
9:53 am 09:53 Cloudy 51 10.6 42 5.6 71 71 SSE 16 26 29.77 1008 10 16 0.00 0.00
10:53 am 10:53 Cloudy 56 13.3 44 6.7 65 65 S 17 28 29.75 1008 10 16 0.00 0.00
11:44 am 11:44 Partly Cloudy 61 16 46 8 59 59 S 22 35 29.68 1005 10 16 0.00 0.00
11:53 am 11:53 Partly Cloudy 62 16.7 46 7.8 56 56 S 23 37 29.71 1006 10 16 0.00 0.00
12:53 pm 12:53 Sunny 66 18.9 46 7.8 49 49 S 21 33 29.66 1004 10 16 0.00 0.00
1:53 pm 13:53 Sunny 68 20 46 7.8 45 45 S 21 33 29.62 1003 10 16 0.00 0.00
2:53 pm 14:53 Partly Cloudy 70 21.1 47 8.3 44 44 S 20 31 29.59 1002 10 16 0.00 0.00
3:53 pm 15:53 Sunny 73 22.8 46 7.8 38 38 S 18 30 29.55 1001 10 16 0.00 0.00
4:53 pm 16:53 Sunny 71 21.7 48 8.9 44 44 S 16 26 29.54 1000 10 16 0.00 0.00
5:53 pm 17:53 Sunny 67 19.4 50 10 55 55 SSE 22 35 29.55 1001 10 16 0.00 0.00
6:53 pm 18:53 Clear 62 16.7 51 10.6 67 67 SSE 18 30 29.57 1001 10 16 0.00 0.00
7:53 pm 19:53 Clear 59 15 52 11.1 78 78 SSE 18 30 29.57 1001 10 16 0.00 0.00
8:33 pm 20:33 Mostly Cloudy 60 15.6 52 11.1 75 75 S 22 35 29.56 1001 10 16 0.00 0.00
8:53 pm 20:53 Cloudy 60 15.6 52 11.1 75 75 SSE 20 31 29.56 1001 10 16 0.00 0.00
9:53 pm 21:53 Cloudy 59 15 53 11.7 81 81 SSE 18 30 29.54 1000 10 16 0.00 0.00
10:48 pm 22:48 Cloudy 57 14 54 12 88 88 SSE 22 35 29.50 999 10 16 0.00 0.00
10:53 pm 22:53 Cloudy 58 14.4 53 11.7 84 84 SSE 22 35 29.50 999 10 16 0.00 0.00
11:53 pm 23:53 Cloudy 56 13.3 51 10.6 84 84 SSE 13 20 29.52 1000 10 16 0.00 0.00

Powered by AerisWeather